Preview of NWS' New Version of Forecast
This preview is not operational and should not be used for support decisions.

Regional Weather Roundup (RWR)

Issued by National Weather Service (NWS)

                            
000
ASUS45 KBOU 211710
RWRCO 

WEATHER ROUNDUP FOR COLORADO
NATIONAL WEATHER SERVICE DENVER/BOULDER CO
1100 AM MDT SUN APR 21 2019

NOTE: "FAIR" INDICATES FEW OR NO CLOUDS BELOW 12000 FEET WITH NO
SIGNIFICANT WEATHER AND/OR OBSTRUCTIONS TO VISIBILITY.

COZ001>005-013-030-031-211800-
...NORTHWEST COLORADO...
  
CITY           SKY/WX    TMP DP  RH WIND       PRES   REMARKS
CRAIG          CLOUDY    55  38  52 SW13      29.94S                  
HAYDEN         PTSUNNY   52  35  52 N9        29.96S                  
MEEKER         CLOUDY    47  38  71 S17G24    29.97R                  
RANGELY        DRIZZLE   51  42  72 CALM      29.93R                  
RABBIT EARS PA CLOUDY    41  28  60 W8        30.08R                  
STEAMBOAT SPGS CLOUDY    52  32  47 CALM      29.96R                  
WALDEN         PTSUNNY   54  25  32 W6        29.96S                  
$$

COZ006>008-011-211800-
...WEST CENTRAL VALLEYS...
  
CITY           SKY/WX    TMP DP  RH WIND       PRES   REMARKS
GRAND JUNCTION PTSUNNY   51  44  77 SE14      29.92S                  
MONTROSE       FAIR      57  36  45 VRB7      29.97F                  
EAGLE          FAIR      55  32  41 W22G32    29.97S                  
RIFLE          LGT RAIN  47  44  90 CALM      30.01R FOG              
DELTA          FAIR      58  45  60 NE10      29.96F                  
NUCLA          FAIR      61  28  29 CALM      29.96F                  
$$

COZ017>023-064>068-211800-
...SOUTHWEST COLORADO...
  
CITY           SKY/WX    TMP DP  RH WIND       PRES   REMARKS
DURANGO        PTSUNNY   58  28  32 W8        30.01S                  
CORTEZ         FAIR      62  26  25 SW12      29.97R                  
PAGOSA SPRINGS PTSUNNY   55  28  36 S12G17    30.05S                  
TELLURIDE      FAIR      46  21  36 SW12G18   30.08S                  
WOLF CREEK PAS PTSUNNY   32  25  74 SW15G29   30.21R WCI  22          
$$

COZ009-010-012-014-032>034-037-058>063-211800-
...CENTRAL COLORADO...
  
CITY           SKY/WX    TMP DP  RH WIND       PRES   REMARKS
ASPEN          CLOUDY    45  33  63 E5        30.02R                  
BUENA VISTA    CLOUDY    53  26  35 W7        29.99S                  
COPPER MTN     CLOUDY    36  27  69 NW10      30.12S                  
BERTHOUD PASS  PTSUNNY   32  23  69 NW13      30.12S WCI  22          
COTTONWOOD PAS PTSUNNY   43  27  52 SW12G18   30.06R                  
GUNNISON       FAIR      42  35  76 E6        30.05S                  
GRANBY         FAIR      54  29  38 W12G17    29.99S                  
KREMMLING      FAIR      55  32  41 W13       29.97S                  
LEADVILLE      CLOUDY    40  25  55 SW10      30.03R                  
MONARCH PASS   HVY SNOW  28  27  93 W29G38    30.24R VSB<1/4 WCI  13  
SALIDA         PTSUNNY   57  27  31 W18G24    30.06R                  
SUNLIGHT       SNOW      32  28  86 SW13G22   30.13R VSB 1/4 WCI  22  
WILKERSON PASS CLOUDY    41  21  45 SW13      30.12S                  
$$

COZ069>075-211800-
...SAN LUIS VALLEY/SANGRE DE CRISTO MOUNTAINS...
  
CITY           SKY/WX    TMP DP  RH WIND       PRES   REMARKS
ALAMOSA        FAIR      58  20  22 SW13G22   30.00F                  
DEL NORTE      FAIR      54  25  32 W8        30.02S                  
LA VETA PASS   NOT AVBL                                               
SAGUACHE       PTSUNNY   52  28  40 CALM      30.02S                  
$$

COZ035-036-038>040-211800-
...NORTHERN COLORADO FRONT RANGE...
  
CITY           SKY/WX    TMP DP  RH WIND       PRES   REMARKS
DENVER INTL AP FAIR      66  35  31 NW8       29.83S                  
AURORA         MOSUNNY   66  34  31 NE6       29.85S                  
FRONT RANGE AP MOSUNNY   68  36  30 N8        29.84S                  
ERIE MUNI ARPT FAIR      68  30  24 NE6       29.87S                  
BOULDER MUN AP FAIR      66  32  28 SE6       29.82S                  
CENTENNIAL     FAIR      66  34  30 NW5       29.85S                  
BROOMFIELD     NOT AVBL                                               
FORT COLLINS   FAIR      68  38  33 NE17      29.82S                  
LONGMONT       FAIR      71  35  27 NE5       29.83S                  
$$

COZ041-046-047-076>085-087-088-211800-
...PIKES PEAK/PALMER DIVIDE AND SOUTHERN FOOTHILLS...
  
CITY           SKY/WX    TMP DP  RH WIND       PRES   REMARKS
COLO. SPRINGS  PTSUNNY   68  26  20 SW7       29.88S                  
A. F. ACADEMY  CLOUDY    63  24  22 NW7       29.85F                  
SCHRIEVER AFB  NOT AVBL                                               
CHEYENNE MTN   PTSUNNY   62  25  24 SE6       29.86S                  
ELLICOTT         N/A    N/A N/A N/A N10G16    29.85S                  
FALCON         FAIR      65  22  19 NW14G21   29.90F                  
FORT CARSON    FAIR      67  26  21 E5        29.86S                  
LIMON          FAIR      69  34  27 N15G23    29.80S                  
MONUMENT HILL  FAIR      57  32  38 MISG      29.93S                  
CANON CITY     FAIR      70  30  23 W15       29.84S                  
WALSENBURG     NOT AVBL                                               
TRINIDAD       FAIR      73  24  16 W22G30    29.86S                  
$$

COZ042>045-048>051-090-091-211800-
...NORTHEAST COLORADO...
  
CITY           SKY/WX    TMP DP  RH WIND       PRES   REMARKS
GREELEY ARPT   FAIR      68  39  34 N21G28    29.81R                  
AKRON          FAIR      71  40  32 NW23G48   29.77R                  
BURLINGTON     FAIR      76  40  27 N20G31    29.71S                  
WRAY           FAIR      68  45  42 N18G25    29.73R                  
YUMA           NOT AVBL                                               
STERLING       FAIR      72  41  33 N23G30    29.73S                  
HOLYOKE        FAIR      64  46  52 N24G31    29.75R                  
FORT MORGAN    NOT AVBL                                               
$$

COZ086-089-092>099-211800-
...SOUTHEAST COLORADO...
  
CITY           SKY/WX    TMP DP  RH WIND       PRES   REMARKS
PUEBLO         FAIR      75  28  17 W14G24    29.80S                  
LA JUNTA       FAIR      74  33  22 MISG      29.78S                  
LAMAR          FAIR      78  37  22 W14       29.73S                  
SPRINGFIELD      N/A     75  27  17 W16G28    29.79R                  
$$